Tracking 19572 objects as of 23-Feb-2019
HD Live streaming from Space Station
objects crossing your sky now

LEMUR 2 LUCYBRYCE

Track LEMUR 2 LUCYBRYCE now!
10-day predictions
LEMUR 2 LUCYBRYCE is classified as:


NORAD ID: 42773
Int'l Code: 2017-036J
Perigee: 498.0 km
Apogee: 515.1 km
Inclination: 97.4 °
Period: 94.6 minutes
Semi major axis: 6877 km
RCS: Unknown
Launch date: June 23, 2017
Source: United States (US)
Launch site: SRIHARIKOTA (SRI)
aabbcc
Your satellite tracking list
Your tracking list is empty




NASA's NSSDC Master Catalog

Two Line Element Set (TLE):
1 42773U 17036J   19053.46762260  .00000710  00000-0  33966-4 0  9990
2 42773  97.3701 113.5319 0012446 265.9280  94.0534 15.22128144 92572
Source of the keplerian elements: AFSPC